This is the latest recevied weather packets stored in our database for station/object WA1OUI. If no packets are shown the sender has not sent any weather packets the latest 10 day(s).
| Time | Temp. | Humidity | Pressure | Rain* | Wind** | Luminosity | Snow |
|---|---|---|---|---|---|---|---|
| 1777992446 | 20.56° C | 58% | 1008.3 hPa | 0 mm | - | 668 W/m² | - |
| 1777992144 | 20.56° C | 58% | 1008.3 hPa | 0 mm | - | 661 W/m² | - |
| 1777991841 | 20° C | 60% | 1008.5 hPa | 0 mm | - | 579 W/m² | - |
| 1777991538 | 19.44° C | 61% | 1008.4 hPa | 0 mm | - | 450 W/m² | - |
| 1777991235 | 19.44° C | 62% | 1008.5 hPa | 0 mm | - | 205 W/m² | - |
| 1777990932 | 18.89° C | 63% | 1008.3 hPa | 0 mm | - | 138 W/m² | - |
| 1777990630 | 18.33° C | 63% | 1008.4 hPa | 0 mm | - | 167 W/m² | - |
| 1777990326 | 18.33° C | 65% | 1008.4 hPa | 0 mm | - | 204 W/m² | - |
| 1777990022 | 17.78° C | 66% | 1008.3 hPa | 0 mm | - | 217 W/m² | - |
| 1777989720 | 17.78° C | 66% | 1008.2 hPa | 0 mm | - | 160 W/m² | - |
| 1777989416 | 17.22° C | 67% | 1008.1 hPa | 0 mm | - | 170 W/m² | - |
| 1777989112 | 16.67° C | 67% | 1007.9 hPa | 0 mm | - | 191 W/m² | - |
| 1777988808 | 16.67° C | 68% | 1007.9 hPa | 0 mm | - | 134 W/m² | - |
| 1777988506 | 16.67° C | 69% | 1008 hPa | 0 mm | - | 145 W/m² | - |
| 1777988202 | 16.11° C | 69% | 1008 hPa | 0 mm | - | 166 W/m² | - |
| 1777987899 | 15.56° C | 72% | 1008 hPa | 0 mm | - | 212 W/m² | - |
| 1777987595 | 15.56° C | 73% | 1008.4 hPa | 0 mm | - | 145 W/m² | - |
| 1777987293 | 15.56° C | 73% | 1008.3 hPa | 0 mm | - | 99 W/m² | - |
| 1777986989 | 15.56° C | 73% | 1008.2 hPa | 0 mm | - | 85 W/m² | - |
| 1777986687 | 15.56° C | 76% | 1008.3 hPa | 0 mm | - | 87 W/m² | - |
| 1777986385 | 15° C | 73% | 1008.4 hPa | 0 mm | - | 127 W/m² | - |
| 1777986084 | 15° C | 74% | 1008.7 hPa | 0.51 mm | - | 146 W/m² | - |
| 1777985779 | 15° C | 75% | 1008.5 hPa | 0.51 mm | - | 74 W/m² | - |
| 1777985476 | 15° C | 74% | 1009 hPa | 0 mm | - | 53 W/m² | - |
| 1777985173 | 15° C | 74% | 1008.9 hPa | 0 mm | - | 69 W/m² | - |
* Rain latest hour (hover to see other rain measurements)
** Current wind speed in m/s (hover to see current wind gust speed)